This is the latest recevied weather packets stored in our database for station/object N6RDS-8. If no packets are shown the sender has not sent any weather packets the latest 10 day(s).
| Time | Temp. | Humidity | Pressure | Rain* | Wind** | Luminosity | Snow |
|---|---|---|---|---|---|---|---|
| 1777841001 | 27.78° C | 31% | 1017.5 hPa | 0 mm | - | 298 W/m² | - |
| 1777840698 | 28.33° C | 32% | 1017.6 hPa | 0 mm | - | 449 W/m² | - |
| 1777840395 | 28.89° C | 31% | 1017.7 hPa | 0 mm | - | 508 W/m² | - |
| 1777840092 | 28.89° C | 30% | 1017.7 hPa | 0 mm | - | 448 W/m² | - |
| 1777839790 | 28.89° C | 30% | 1017.7 hPa | 0 mm | - | 575 W/m² | - |
| 1777839488 | 28.89° C | 30% | 1017.9 hPa | 0 mm | - | 611 W/m² | - |
| 1777839185 | 28.89° C | 30% | 1017.8 hPa | 0 mm | - | 569 W/m² | - |
| 1777838882 | 28.33° C | 32% | 1018 hPa | 0 mm | - | 673 W/m² | - |
| 1777838578 | 28.33° C | 33% | 1018.1 hPa | 0 mm | - | 565 W/m² | - |
| 1777838275 | 27.78° C | 34% | 1018.2 hPa | 0 mm | - | 539 W/m² | - |
| 1777837972 | 27.22° C | 33% | 1018.4 hPa | 0 mm | - | 498 W/m² | - |
| 1777837670 | 27.22° C | 36% | 1018.4 hPa | 0 mm | - | 364 W/m² | - |
| 1777837365 | 27.22° C | 35% | 1018.6 hPa | 0 mm | - | 504 W/m² | - |
| 1777837061 | 26.67° C | 36% | 1018.5 hPa | 0 mm | - | 544 W/m² | - |
| 1777836758 | 27.22° C | 35% | 1018.9 hPa | 0 mm | - | 415 W/m² | - |
| 1777836453 | 26.67° C | 36% | 1018.7 hPa | 0 mm | - | 424 W/m² | - |
| 1777836148 | 26.67° C | 36% | 1018.7 hPa | 0 mm | - | 582 W/m² | - |
| 1777835846 | 26.67° C | 37% | 1018.7 hPa | 0 mm | - | 686 W/m² | - |
| 1777835543 | 26.67° C | 37% | 1018.8 hPa | 0 mm | - | 462 W/m² | - |
| 1777835240 | 26.11° C | 38% | 1018.9 hPa | 0 mm | - | 463 W/m² | - |
| 1777834936 | 25.56° C | 39% | 1019.3 hPa | 0 mm | - | 382 W/m² | - |
| 1777834634 | 25° C | 39% | 1019.5 hPa | 0 mm | - | 314 W/m² | - |
| 1777834329 | 25.56° C | 40% | 1019.7 hPa | 0 mm | - | 290 W/m² | - |
| 1777834024 | 25° C | 40% | 1019.7 hPa | 0 mm | - | 314 W/m² | - |
| 1777833720 | 24.44° C | 40% | 1019.6 hPa | 0 mm | - | 350 W/m² | - |
* Rain latest hour (hover to see other rain measurements)
** Current wind speed in m/s (hover to see current wind gust speed)